• In United Kingdom
  • List of Countries
  • For 7 days
  • Water Temperature
  • Satellite Maps
  • Weather Map
  • Weather Widgets
  • user-avatar
    Login

    Hourly Weather Wien

    Today, 23 June, Friday

    Time Temperature Precipitation Wind Pressure Humidity
    00:00 +25°C° 0 mm 3 mps 741 mmHg 70%
    01:00 +24°C° 0 mm 1 mps 741 mmHg 74%
    02:00 +23°C° 0 mm 2 mps 740 mmHg 74%
    03:00 +23°C° 0 mm 2 mps 740 mmHg 74%
    04:00 +22°C° 0 mm 3 mps 740 mmHg 74%
    05:00 +25°C° 0 mm 4 mps 740 mmHg 70%
    06:00 +26°C° 0 mm 5 mps 740 mmHg 67%
    07:00 +25°C° 0 mm 4 mps 740 mmHg 69%
    08:00 +27°C° 0 mm 5 mps 741 mmHg 62%
    09:00 +29°C° 0 mm 7 mps 741 mmHg 56%
    10:00 +32°C° 0 mm 9 mps 741 mmHg 49%
    11:00 +32°C° 0 mm 9 mps 741 mmHg 47%
    12:00 +32°C° 0 mm 9 mps 741 mmHg 46%
    13:00 +33°C° 0 mm 9 mps 741 mmHg 44%
    14:00 +32°C° 0 mm 8 mps 741 mmHg 45%
    15:00 +32°C° 0 mm 8 mps 741 mmHg 47%
    16:00 +30°C° 0 mm 7 mps 741 mmHg 48%
    17:00 +29°C° 0 mm 6 mps 742 mmHg 54%
    18:00 +27°C° 0 mm 5 mps 742 mmHg 61%
    19:00 +26°C° 0 mm 4 mps 742 mmHg 67%
    20:00 +25°C° 0 mm 3 mps 742 mmHg 72%
    21:00 +22°C° 0 mm 3 mps 743 mmHg 77%
    22:00 +21°C° 0 mm 3 mps 743 mmHg 82%
    23:00 +20°C° 0 mm 3 mps 744 mmHg 84%

    Tomorrow, 24 June, Saturday

    Time Temperature Precipitation Wind Pressure Humidity
    00:00 +20°C° 0 mm 2 mps 744 mmHg 86%
    01:00 +19°C° 0 mm 2 mps 744 mmHg 88%
    02:00 +19°C° 0 mm 2 mps 744 mmHg 89%
    03:00 +18°C° 0 mm 2 mps 744 mmHg 89%
    04:00 +18°C° 0 mm 3 mps 744 mmHg 90%
    05:00 +19°C° 0 mm 3 mps 744 mmHg 83%
    06:00 +21°C° 0 mm 4 mps 744 mmHg 75%
    07:00 +23°C° 0 mm 5 mps 744 mmHg 67%
    08:00 +25°C° 0 mm 5 mps 744 mmHg 61%
    09:00 +27°C° 0 mm 5 mps 744 mmHg 56%
    10:00 +28°C° 0 mm 5 mps 744 mmHg 50%
    11:00 +29°C° 0.1 mm 5 mps 744 mmHg 48%
    12:00 +30°C° 0.1 mm 5 mps 744 mmHg 46%
    13:00 +32°C° 0.1 mm 5 mps 743 mmHg 44%
    14:00 +32°C° 0.1 mm 4 mps 743 mmHg 45%
    15:00 +32°C° 0.1 mm 4 mps 743 mmHg 46%
    16:00 +32°C° 0.1 mm 4 mps 742 mmHg 47%
    17:00 +29°C° 0.3 mm 3 mps 742 mmHg 55%
    18:00 +28°C° 0.3 mm 3 mps 742 mmHg 63%
    19:00 +26°C° 0.3 mm 2 mps 742 mmHg 71%
    20:00 +25°C° 0.2 mm 2 mps 742 mmHg 76%
    21:00 +23°C° 0.2 mm 2 mps 743 mmHg 81%
    22:00 +21°C° 0.2 mm 2 mps 743 mmHg 86%
    23:00 +20°C° 0.1 mm 2 mps 743 mmHg 87%

    Day after tomorrow, 25 June, Sunday

    Time Temperature Precipitation Wind Pressure Humidity
    00:00 +20°C° 0.1 mm 2 mps 743 mmHg 89%
    01:00 +19°C° 0.1 mm 3 mps 743 mmHg 90%
    02:00 +18°C° 0.1 mm 2 mps 742 mmHg 91%
    03:00 +18°C° 0.1 mm 2 mps 742 mmHg 91%
    04:00 +17°C° 0.1 mm 2 mps 742 mmHg 91%
    05:00 +19°C° 0.1 mm 2 mps 742 mmHg 86%
    06:00 +20°C° 0.1 mm 3 mps 743 mmHg 80%
    07:00 +21°C° 0.1 mm 3 mps 743 mmHg 75%
    08:00 +21°C° 0.3 mm 3 mps 743 mmHg 76%
    09:00 +20°C° 0.3 mm 3 mps 743 mmHg 77%
    10:00 +20°C° 0.3 mm 3 mps 743 mmHg 78%
    11:00 +20°C° 0.6 mm 3 mps 743 mmHg 81%
    12:00 +19°C° 0.6 mm 3 mps 743 mmHg 83%
    13:00 +19°C° 0.6 mm 3 mps 743 mmHg 86%
    14:00 +19°C° 0.2 mm 3 mps 743 mmHg 84%
    15:00 +20°C° 0.2 mm 3 mps 743 mmHg 83%
    16:00 +20°C° 0.2 mm 3 mps 743 mmHg 81%
    17:00 +20°C° 0 mm 3 mps 742 mmHg 80%
    18:00 +20°C° 0 mm 2 mps 742 mmHg 80%
    19:00 +21°C° 0 mm 2 mps 742 mmHg 79%
    20:00 +20°C° 0 mm 3 mps 742 mmHg 81%
    21:00 +19°C° 0 mm 3 mps 742 mmHg 82%
    22:00 +18°C° 0 mm 3 mps 742 mmHg 83%
    23:00 +18°C° 0 mm 3 mps 742 mmHg 85%

    26 June, Monday

    Time Temperature Precipitation Wind Pressure Humidity
    00:00 +17°C° 0 mm 3 mps 743 mmHg 86%
    01:00 +17°C° 0 mm 3 mps 743 mmHg 88%
    02:00 +16°C° 0 mm 3 mps 743 mmHg 89%
    03:00 +16°C° 0 mm 3 mps 743 mmHg 90%
    04:00 +16°C° 0 mm 2 mps 743 mmHg 92%
    05:00 +17°C° 0 mm 3 mps 743 mmHg 85%
    06:00 +19°C° 0 mm 3 mps 744 mmHg 79%
    07:00 +20°C° 0 mm 4 mps 744 mmHg 72%
    08:00 +22°C° 0 mm 4 mps 744 mmHg 67%
    09:00 +23°C° 0 mm 4 mps 744 mmHg 61%
    10:00 +25°C° 0 mm 3 mps 744 mmHg 55%
    11:00 +26°C° 0 mm 3 mps 744 mmHg 53%
    12:00 +27°C° 0 mm 2 mps 744 mmHg 51%
    13:00 +28°C° 0 mm 2 mps 744 mmHg 49%
    14:00 +28°C° 0 mm 2 mps 743 mmHg 50%
    15:00 +28°C° 0 mm 2 mps 743 mmHg 50%
    16:00 +28°C° 0 mm 2 mps 743 mmHg 51%
    17:00 +27°C° 0 mm 2 mps 743 mmHg 56%
    18:00 +26°C° 0 mm 2 mps 743 mmHg 62%
    19:00 +25°C° 0 mm 2 mps 743 mmHg 67%
    20:00 +23°C° 0 mm 2 mps 743 mmHg 71%
    21:00 +21°C° 0 mm 3 mps 743 mmHg 75%
    22:00 +19°C° 0 mm 3 mps 743 mmHg 79%
    23:00 +19°C° 0 mm 3 mps 742 mmHg 80%

    27 June, Tuesday

    Time Temperature Precipitation Wind Pressure Humidity
    00:00 +19°C° 0 mm 3 mps 742 mmHg 82%
    01:00 +18°C° 0 mm 3 mps 742 mmHg 83%
    02:00 +18°C° 0 mm 3 mps 742 mmHg 84%
    03:00 +18°C° 0 mm 3 mps 741 mmHg 84%
    04:00 +18°C° 0 mm 4 mps 741 mmHg 85%
    05:00 +19°C° 0 mm 4 mps 741 mmHg 80%
    06:00 +21°C° 0 mm 5 mps 741 mmHg 74%
    07:00 +23°C° 0 mm 5 mps 741 mmHg 68%
    08:00 +26°C° 0 mm 6 mps 741 mmHg 63%
    09:00 +27°C° 0 mm 6 mps 741 mmHg 57%
    10:00 +29°C° 0 mm 6 mps 741 mmHg 51%
    11:00 +30°C° 0 mm 6 mps 740 mmHg 49%
    12:00 +32°C° 0 mm 6 mps 740 mmHg 46%
    13:00 +33°C° 0 mm 5 mps 739 mmHg 44%
    14:00 +33°C° 0.1 mm 5 mps 739 mmHg 44%
    15:00 +34°C° 0.1 mm 4 mps 739 mmHg 45%
    16:00 +34°C° 0.1 mm 4 mps 738 mmHg 45%
    17:00 +32°C° 0 mm 4 mps 738 mmHg 52%
    18:00 +30°C° 0 mm 3 mps 738 mmHg 58%
    19:00 +28°C° 0 mm 3 mps 738 mmHg 65%
    20:00 +27°C° 0 mm 3 mps 738 mmHg 70%
    21:00 +25°C° 0 mm 3 mps 737 mmHg 76%
    22:00 +24°C° 0 mm 3 mps 737 mmHg 82%
    23:00 +22°C° 0 mm 3 mps 737 mmHg 82%

    28 June, Wednesday

    Time Temperature Precipitation Wind Pressure Humidity
    00:00 +22°C° 0 mm 3 mps 737 mmHg 82%
    01:00 +21°C° 0 mm 3 mps 737 mmHg 83%
    02:00 +21°C° 0 mm 3 mps 736 mmHg 83%
    03:00 +20°C° 0 mm 3 mps 736 mmHg 82%
    04:00 +20°C° 0 mm 2 mps 736 mmHg 82%
    05:00 +21°C° 0 mm 3 mps 736 mmHg 77%
    06:00 +24°C° 0 mm 3 mps 735 mmHg 71%
    07:00 +26°C° 0 mm 3 mps 735 mmHg 65%
    08:00 +28°C° 0 mm 3 mps 735 mmHg 59%
    09:00 +30°C° 0 mm 3 mps 735 mmHg 53%
    10:00 +31°C° 0 mm 3 mps 735 mmHg 47%
    11:00 +34°C° 0 mm 3 mps 735 mmHg 44%
    12:00 +35°C° 0 mm 3 mps 734 mmHg 41%
    13:00 +36°C° 0 mm 3 mps 734 mmHg 38%
    14:00 +36°C° 0 mm 3 mps 734 mmHg 37%
    15:00 +36°C° 0 mm 3 mps 734 mmHg 37%
    16:00 +36°C° 0 mm 2 mps 733 mmHg 37%
    17:00 +35°C° 0 mm 3 mps 733 mmHg 42%
    18:00 +33°C° 0 mm 4 mps 733 mmHg 47%
    19:00 +30°C° 0 mm 4 mps 733 mmHg 52%
    20:00 +30°C° 0 mm 5 mps 733 mmHg 51%
    21:00 +29°C° 0 mm 5 mps 733 mmHg 51%
    22:00 +28°C° 0 mm 6 mps 734 mmHg 50%
    23:00 +28°C° 0 mm 6 mps 733 mmHg 50%
    Show more